This is the latest recevied weather packets stored in our database for station/object IZ2MHJ-3. If no packets are shown the sender has not sent any weather packets the latest 10 day(s).
| Time | Temp. | Humidity | Pressure | Rain* | Wind** | Luminosity | Snow |
|---|---|---|---|---|---|---|---|
| 1777899899 | 25° C | 32% | 1018 hPa | - | - | - | - |
| 1777898699 | 23.89° C | 34% | 1018.1 hPa | - | - | - | - |
| 1777897499 | 24.44° C | 31% | 1018.3 hPa | - | - | - | - |
| 1777896298 | 25.56° C | 32% | 1018.3 hPa | - | - | - | - |
| 1777895098 | 25.56° C | 32% | 1018.3 hPa | - | - | - | - |
| 1777893898 | 25° C | 30% | 1018.3 hPa | - | - | - | - |
| 1777892697 | 25.56° C | 30% | 1018.4 hPa | - | - | - | - |
| 1777891497 | 25° C | 32% | 1018.7 hPa | - | - | - | - |
| 1777890297 | 25.56° C | 30% | 1018.8 hPa | - | - | - | - |
| 1777889096 | 25.56° C | 30% | 1018.8 hPa | - | - | - | - |
| 1777887896 | 27.78° C | 27% | 1018.6 hPa | - | - | - | - |
| 1777886696 | 26.67° C | 30% | 1018.7 hPa | - | - | - | - |
| 1777885496 | 24.44° C | 32% | 1019 hPa | - | - | - | - |
| 1777884295 | 25.56° C | 29% | 1018.8 hPa | - | - | - | - |
| 1777883095 | 25° C | 33% | 1018.8 hPa | - | - | - | - |
| 1777881895 | 23.89° C | 34% | 1018.9 hPa | - | - | - | - |
| 1777880695 | 21.67° C | 42% | 1019.2 hPa | - | - | - | - |
| 1777879494 | 21.11° C | 42% | 1019.3 hPa | - | - | - | - |
| 1777878294 | 21.67° C | 42% | 1019 hPa | - | - | - | - |
| 1777877093 | 20° C | 47% | 1019 hPa | - | - | - | - |
| 1777875893 | 17.22° C | 56% | 1019.2 hPa | - | - | - | - |
| 1777874693 | 16.11° C | 57% | 1019.3 hPa | - | - | - | - |
| 1777873492 | 16.11° C | 57% | 1019.3 hPa | - | - | - | - |
| 1777872292 | 15.56° C | 58% | 1019.2 hPa | - | - | - | - |
| 1777871092 | 15° C | 60% | 1018.8 hPa | - | - | - | - |
* Rain since midnight (hover to see other rain measurements)
** Current wind speed in m/s (hover to see current wind gust speed)